Retour au catalogue

COSMOS 1375 DEB

ActifLEO
NORAD 17800·DEBRIS·🇷🇺 Russia

Lancé Jun 6, 1982 depuis Plesetsk Cosmodrome

Loading…

Prochains Passages (prochaines 24 heures)

TLE

FraisSource: Space-Track

Époque: Sep 13, 2026, 23:45 UTC

1 17800U 82055AS  26256.99017653  .00000084  00000-0  18288-3 0  9999
2 17800  65.8350 151.5853 0027629  19.2781 354.5585 13.70833698 44873

Suivez COSMOS 1375 DEB en temps réel avec AllMySat

Download on the App Store